TimeMST,TemperatureF,Dew PointF,Humidity,Sea Level PressureIn,VisibilityMPH,Wind Direction,Wind SpeedMPH,Gust SpeedMPH,PrecipitationIn,Events,Conditions,WindDirDegrees,DateUTC
12:54 AM,54.0,30.0,40,29.90,10.0,South,4.6,-,N/A,,Clear,170,2012-10-09 07:54:00
1:54 AM,53.6,30.2,41,30.14,10.0,East,3.5,-,N/A,,Clear,100,2012-10-09 08:54:00
2:54 AM,48.0,30.9,52,29.92,10.0,Calm,Calm,-,N/A,,Clear,0,2012-10-09 09:54:00
3:54 AM,45.0,30.0,56,29.94,10.0,Calm,Calm,-,N/A,,Clear,0,2012-10-09 10:54:00
4:54 AM,46.9,32.0,56,29.94,10.0,Calm,Calm,-,N/A,,Clear,0,2012-10-09 11:54:00
5:54 AM,42.1,30.9,65,29.98,10.0,South,5.8,-,N/A,,Clear,170,2012-10-09 12:54:00
6:54 AM,46.0,32.0,58,29.99,10.0,Calm,Calm,-,N/A,,Clear,0,2012-10-09 13:54:00
7:54 AM,55.9,32.0,40,30.00,10.0,Calm,Calm,-,N/A,,Clear,0,2012-10-09 14:54:00
8:54 AM,60.1,35.1,39,29.99,10.0,East,3.5,-,N/A,,Clear,90,2012-10-09 15:54:00
9:54 AM,66.9,37.9,34,29.97,10.0,North,5.8,-,N/A,,Clear,10,2012-10-09 16:54:00
10:54 AM,70.0,39.0,32,29.96,10.0,Calm,Calm,-,N/A,,Clear,0,2012-10-09 17:54:00
11:54 AM,73.9,30.9,21,29.93,10.0,WNW,15.0,23.0,N/A,,Clear,290,2012-10-09 18:54:00
12:54 PM,75.0,34.0,22,29.88,10.0,West,13.8,21.9,N/A,,Clear,260,2012-10-09 19:54:00
1:54 PM,75.0,34.0,22,29.87,10.0,Calm,Calm,-,N/A,,Clear,0,2012-10-09 20:54:00
2:54 PM,77.0,33.1,20,29.86,10.0,WNW,10.4,-,N/A,,Clear,290,2012-10-09 21:54:00
3:54 PM,77.0,33.1,20,29.86,10.0,West,10.4,16.1,N/A,,Clear,280,2012-10-09 22:54:00
4:54 PM,75.0,30.9,20,29.86,10.0,West,9.2,-,N/A,,Clear,270,2012-10-09 23:54:00
5:54 PM,70.0,32.0,25,29.90,10.0,WSW,5.8,-,N/A,,Clear,250,2012-10-10 00:54:00
6:54 PM,66.0,30.0,26,29.93,10.0,WNW,3.5,-,N/A,,Clear,300,2012-10-10 01:54:00
7:54 PM,62.1,28.9,29,29.93,10.0,West,4.6,-,N/A,,Clear,260,2012-10-10 02:54:00
8:54 PM,60.1,28.9,31,29.95,10.0,Calm,Calm,-,N/A,,Clear,0,2012-10-10 03:54:00
9:54 PM,59.0,33.1,38,29.94,10.0,WSW,6.9,-,N/A,,Clear,250,2012-10-10 04:54:00
10:54 PM,57.0,33.1,40,29.94,10.0,South,4.6,-,N/A,,Clear,190,2012-10-10 05:54:00
11:54 PM,55.0,33.1,43,29.94,10.0,South,6.9,-,N/A,,Clear,190,2012-10-10 06:54:00